Location: LDNL
(36.4545°S, 141.6685°E)
Time: 04:57:11
(UTC+11:00)

Vanguard 2 - Pass Details

Date: 16 August 2022
Orbit: 552 x 2934 km, 32.9° (Epoch: 06 October)

Event Time Altitude Azimuth Distance (km) Brightness Sun altitude
Rises 20:22:47 0° 263° (W) 6,483 13.5 -29.1°
Reaches altitude 10° 20:27:33 10° 265° (W) 5,216 12.7 -30.1°
Maximum altitude 20:41:32 62° 340° (NNW) 1,966 9.4 -32.9°
Enters shadow 20:43:40 53° 24° (NNE) 1,964 9.2 -33.3°
Drops below altitude 10° 20:49:55 10° 59° (ENE) 3,248 - -34.5°
Sets 20:52:13 0° 62° (ENE) 3,962 - -35.0°
